STARLINK-11674, 64327

Orbit data source: Space-Track

STARLINK-11674, 64327 is a payload satellite owned by SpaceX/Seattle (US) in LEO that was launched on Tue, 10 Jun 2025 UTC via an FALCON 9 launch vehicle from the Air Force Eastern Test Range (AFETR). Payload-class satellites include a variety of spacecraft equipped with specific instruments for various scientific and technological missions. These include communications satellites like Starlink; space stations such as the ISS; scientific satellites like the Hubble; Earth observation satellites from companies like Planet Labs, Umbra, and HawkEye 360; GPS; miniature CubeSats for education and research; and military/defense satellites.

Loading next visibility...
Identifier
64327, 2025-124L
Orbit
LEO
Country
Flag of USUS
Related business
Manufacturer
SpaceX/Seattle
Mission
Operational Commercial Communications
Bus & Motor
STARLINK V2MD, Unknown motor
Mass
960 kg wet, ~910 kg dry
Launch date (UTC)
2025-06-10 (9 months ago)
Launch vehicle
FALCON 9
Launch site
Air Force Eastern Test Range (AFETR)
Object type
Payload
Rocket body
Debris
Shape & HBR
Box + 2 Pan, 18.1 m
Radar Cross Section
36.964 m², Large (>1 m²)

Expand to show TLE details & history
Last TLE update: 21 hours ago

TLE from 21 hours ago
0 STARLINK-11674
1 64327U 25124L   26073.49572897  .00474516  00000-0  34664-2 0  9997
2 64327  42.9989 359.9386 0001574 342.4481  17.6332 15.71032634 43596
Epoch: 2026-03-14T11:53Z
TLE epoch observation values (Epoch: 2026-03-14T11:53:50.983Z)
Latitude
-0°
Longitude
9.36009°
Altitude
354.706 km
Speed
7.699 km/s
True Right ascension
23h 59m 45s
True Declination
0° 00' 00"
Sunlit
Object was in daylight at epoch
Visualization orbit readout
Latitude
Unknown
Longitude
Unknown
Altitude
Unknown
Speed
Unknown
Apparent Right ascension
Unknown
Apparent Declination
Unknown
Sunlit
N/A
Visualization observer readout
Local Sidereal Time
13:39:52
Azimuth
Unknown
Elevation
Unknown
Doppler factor
Unknown
Orbital elements
Apogee altitude
358.987 km
Perigee altitude
356.866 km
Semi-major axis
6,736.063 km
Eccentricity
0.00016
Inclination
42.9989°
RAAN
359.9386°
Arg. of periapsis
342.4481°
True anomaly
17.63866°
Mean anomaly
17.6332°
Eccentric anomaly
17.63593°
Mean motion
3.92585 °/min
Orbital period
91.7 mins
BSTAR
0.0034664
Loading maneuver chart data...
Computing Atmospheric mass density...
Loading historical data...
Loading historical data...
Loading historical data...
Loading historical data...
Loading historical data...
Loading historical data...
Loading historical data...

Documentation

Showing up to 5 results
|